Location: *
(58.7167°N, 26.1833°E)
Time: 08:42:54
(UTC+00:00)

COSMOS 2487 - Pass Details

Date: 25 August 2019
Orbit: 444 x 450 km, 74.7° (Epoch: 18 September)

Event Time Altitude Azimuth Distance (km) Brightness Sun altitude
Exits shadow 21:38:32 84° 187° (S) 461 2.2 -20.2°
Maximum altitude 21:38:38 88° 120° (ESE) 459 2.3 -20.2°
Drops below altitude 10° 21:42:09 10° 30° (NNE) 1,596 5.9 -20.3°
Sets 21:44:15 0° 30° (NNE) 2,474 7.0 -20.3°
